TimeCDT,TemperatureF,Dew PointF,Humidity,Sea Level PressureIn,VisibilityMPH,Wind Direction,Wind SpeedMPH,Gust SpeedMPH,PrecipitationIn,Events,Conditions,WindDirDegrees,DateUTC
12:15 AM,65.5,57.2,75,30.10,7.0,North,4.6,-,N/A,Rain,Rain,10,2013-09-16 05:15:00
12:35 AM,65.5,57.2,75,30.11,10.0,North,5.8,-,N/A,Rain,Rain,360,2013-09-16 05:35:00
12:55 AM,65.3,57.2,75,30.11,10.0,North,5.8,-,N/A,Rain,Rain,10,2013-09-16 05:55:00
1:15 AM,64.9,57.4,76,30.11,10.0,North,5.8,-,N/A,Rain,Rain,360,2013-09-16 06:15:00
1:35 AM,64.8,57.6,77,30.12,10.0,North,4.6,-,N/A,Rain,Rain,360,2013-09-16 06:35:00
1:55 AM,64.6,57.9,79,30.12,10.0,North,4.6,-,N/A,Rain,Rain,10,2013-09-16 06:55:00
2:15 AM,64.6,57.6,78,30.13,10.0,NNE,8.1,-,N/A,Rain,Rain,20,2013-09-16 07:15:00
2:35 AM,64.4,57.2,77,30.13,10.0,North,6.9,-,N/A,Rain,Rain,360,2013-09-16 07:35:00
2:55 AM,64.0,57.6,79,30.13,10.0,North,5.8,-,N/A,Rain,Rain,10,2013-09-16 07:55:00
3:15 AM,63.7,57.7,81,30.13,10.0,North,4.6,-,N/A,Rain,Rain,360,2013-09-16 08:15:00
3:35 AM,63.5,57.7,81,30.14,10.0,North,5.8,-,N/A,Rain,Rain,360,2013-09-16 08:35:00
3:55 AM,63.5,57.4,80,30.14,10.0,NNE,3.5,-,N/A,Rain,Rain,20,2013-09-16 08:55:00
4:15 AM,62.8,57.4,82,30.14,10.0,North,6.9,-,N/A,Rain,Rain,350,2013-09-16 09:15:00
4:35 AM,61.7,57.7,87,30.15,5.0,North,6.9,-,N/A,Rain,Light Rain,360,2013-09-16 09:35:00
4:55 AM,61.3,58.1,89,30.16,5.0,North,6.9,-,N/A,Rain,Rain,360,2013-09-16 09:55:00
5:15 AM,61.2,57.7,88,30.16,4.0,North,5.8,-,N/A,Rain,Light Rain,10,2013-09-16 10:15:00
5:35 AM,61.0,57.7,89,30.18,5.0,North,5.8,-,N/A,Rain,Rain,10,2013-09-16 10:35:00
5:55 AM,61.2,57.0,86,30.18,7.0,NNE,6.9,-,N/A,Rain,Rain,20,2013-09-16 10:55:00
6:15 AM,61.0,55.9,83,30.19,10.0,North,6.9,-,N/A,Rain,Rain,10,2013-09-16 11:15:00
6:35 AM,61.0,55.6,82,30.20,10.0,North,5.8,-,N/A,Rain,Rain,360,2013-09-16 11:35:00
6:55 AM,61.0,55.4,82,30.21,7.0,North,4.6,-,N/A,Rain,Rain,10,2013-09-16 11:55:00
7:15 AM,61.2,55.2,81,30.21,7.0,NNE,4.6,-,N/A,Rain,Rain,20,2013-09-16 12:15:00
7:35 AM,61.3,55.4,81,30.22,7.0,NNE,4.6,-,N/A,Rain,Rain,20,2013-09-16 12:35:00
7:55 AM,61.5,55.4,80,30.23,7.0,NNE,6.9,-,N/A,Rain,Rain,20,2013-09-16 12:55:00
8:15 AM,61.9,55.8,80,30.23,7.0,NNE,3.5,-,N/A,Rain,Rain,30,2013-09-16 13:15:00
8:35 AM,62.8,55.6,77,30.23,7.0,NNE,5.8,-,N/A,Rain,Rain,30,2013-09-16 13:35:00
8:55 AM,63.0,54.9,75,30.24,7.0,NNE,5.8,-,N/A,,Overcast,30,2013-09-16 13:55:00
9:15 AM,64.0,54.9,72,30.24,7.0,NNE,6.9,-,N/A,,Overcast,30,2013-09-16 14:15:00
9:35 AM,64.0,54.1,70,30.25,10.0,NE,9.2,-,N/A,,Overcast,50,2013-09-16 14:35:00
9:55 AM,65.8,54.7,67,30.25,10.0,NNE,6.9,-,N/A,,Overcast,20,2013-09-16 14:55:00
10:15 AM,64.9,54.0,68,30.26,7.0,NNE,6.9,-,N/A,,Overcast,20,2013-09-16 15:15:00
10:35 AM,65.5,54.3,67,30.26,10.0,NNE,8.1,-,N/A,,Overcast,30,2013-09-16 15:35:00
10:55 AM,65.5,53.6,65,30.27,10.0,NNE,6.9,-,N/A,,Overcast,20,2013-09-16 15:55:00
11:15 AM,65.3,53.2,65,30.27,10.0,NNE,5.8,-,N/A,,Overcast,30,2013-09-16 16:15:00
11:35 AM,66.9,53.1,61,30.27,7.0,East,9.2,-,N/A,,Overcast,80,2013-09-16 16:35:00
11:55 AM,66.6,52.5,61,30.27,10.0,NNE,8.1,-,N/A,,Overcast,20,2013-09-16 16:55:00
12:15 PM,68.0,52.7,58,30.28,10.0,North,10.4,-,N/A,,Overcast,10,2013-09-16 17:15:00
12:35 PM,67.1,52.9,60,30.28,7.0,NE,9.2,-,N/A,,Overcast,40,2013-09-16 17:35:00
12:55 PM,66.6,52.3,60,30.28,7.0,NE,5.8,-,N/A,,Overcast,40,2013-09-16 17:55:00
1:15 PM,67.1,52.0,58,30.28,10.0,NE,5.8,-,N/A,,Overcast,50,2013-09-16 18:15:00
1:35 PM,70.0,52.2,53,30.26,10.0,ENE,6.9,-,N/A,,Mostly Cloudy,70,2013-09-16 18:35:00
1:55 PM,69.4,52.2,54,30.26,7.0,NNE,6.9,-,N/A,,Mostly Cloudy,30,2013-09-16 18:55:00
2:15 PM,70.3,52.2,52,30.25,10.0,NE,3.5,-,N/A,,Mostly Cloudy,50,2013-09-16 19:15:00
2:35 PM,69.6,51.8,53,30.25,10.0,NE,5.8,-,N/A,,Overcast,40,2013-09-16 19:35:00
2:55 PM,69.3,51.1,52,30.25,10.0,NNE,9.2,-,N/A,,Overcast,30,2013-09-16 19:55:00
3:15 PM,69.3,51.6,53,30.24,5.0,NE,4.6,-,N/A,,Haze,40,2013-09-16 20:15:00
3:35 PM,68.5,51.1,54,30.24,10.0,NE,5.8,-,N/A,,Overcast,50,2013-09-16 20:35:00
3:55 PM,68.0,50.9,54,30.24,10.0,NE,6.9,-,N/A,,Overcast,40,2013-09-16 20:55:00
4:15 PM,68.4,50.9,54,30.24,10.0,NNE,3.5,-,N/A,,Overcast,30,2013-09-16 21:15:00
4:35 PM,68.4,51.1,54,30.24,10.0,North,6.9,-,N/A,,Overcast,10,2013-09-16 21:35:00
4:55 PM,68.0,50.9,54,30.24,10.0,NNE,4.6,-,N/A,,Overcast,20,2013-09-16 21:55:00
5:15 PM,67.8,50.5,54,30.24,10.0,NE,4.6,-,N/A,,Overcast,40,2013-09-16 22:15:00
5:35 PM,67.3,50.9,56,30.24,10.0,NNE,8.1,-,N/A,,Overcast,20,2013-09-16 22:35:00
5:55 PM,66.6,50.9,57,30.24,7.0,NE,6.9,-,N/A,,Overcast,40,2013-09-16 22:55:00
6:15 PM,65.8,50.9,58,30.24,7.0,NNE,5.8,-,N/A,,Overcast,30,2013-09-16 23:15:00
6:35 PM,64.8,50.9,61,30.23,10.0,NNE,6.9,-,N/A,,Overcast,30,2013-09-16 23:35:00
6:55 PM,63.9,50.9,63,30.23,10.0,Calm,Calm,-,N/A,,Overcast,0,2013-09-16 23:55:00
7:15 PM,62.8,50.9,65,30.23,10.0,NNE,3.5,-,N/A,,Overcast,20,2013-09-17 00:15:00
7:35 PM,62.6,50.9,66,30.23,10.0,NE,3.5,-,N/A,,Overcast,40,2013-09-17 00:35:00
7:55 PM,62.6,51.1,66,30.24,7.0,NNE,3.5,-,N/A,,Overcast,30,2013-09-17 00:55:00
8:15 PM,62.1,50.9,67,30.24,10.0,NE,3.5,-,N/A,,Overcast,40,2013-09-17 01:15:00
8:35 PM,61.5,50.5,67,30.25,10.0,NNE,3.5,-,N/A,,Overcast,30,2013-09-17 01:35:00
8:55 PM,61.0,50.4,68,30.25,10.0,NE,4.6,-,N/A,,Overcast,40,2013-09-17 01:55:00
9:15 PM,60.8,50.4,68,30.25,7.0,NE,3.5,-,N/A,,Overcast,50,2013-09-17 02:15:00
9:35 PM,60.8,50.4,68,30.25,10.0,Calm,Calm,-,N/A,,Overcast,0,2013-09-17 02:35:00
9:55 PM,60.8,50.5,69,30.25,10.0,NE,3.5,-,N/A,,Overcast,50,2013-09-17 02:55:00
10:15 PM,60.8,50.4,68,30.25,10.0,NE,3.5,-,N/A,,Overcast,50,2013-09-17 03:15:00
10:35 PM,59.9,50.4,71,30.26,10.0,Calm,Calm,-,N/A,,Scattered Clouds,0,2013-09-17 03:35:00
10:55 PM,59.0,50.2,73,30.26,7.0,Calm,Calm,-,N/A,,Clear,0,2013-09-17 03:55:00
11:15 PM,58.6,50.0,73,30.27,10.0,ENE,3.5,-,N/A,,Clear,60,2013-09-17 04:15:00
11:35 PM,58.3,49.6,73,30.27,10.0,ENE,3.5,-,N/A,,Clear,70,2013-09-17 04:35:00
11:55 PM,58.1,49.5,73,30.28,10.0,ENE,3.5,-,N/A,,Clear,70,2013-09-17 04:55:00